Content
SEND FEEDBACK

Daily
Averages
Monthly
Summary
United States of America

MUKILTEO, WASHINGTON


Home > North America > United States > Washington
Elevation: 597 feet     Latitude: 47 55N     Longitude: 122 16W

WEATHER
 
SELECT A DAY
Number of Records: 205,576;   Date Range: 1/1/95 - 9/30/14
 
SHARE

PRINT THIS DATA

[ ← Previous Day ]
WEATHER ALMANAC - FEBRUARY 13, 2013
[ Next Day → ]
[ °C ]   °F
Weather ElementAverageHighLow
Temperature44.4 °F46.9 °F (12:53 am)42.8 °F (8:21 pm)
Dewpoint39.5 °F42.8 °F (1:15 am)37 °F (6:53 pm)
Humidity83.1 %93 % (1:15 am)74 % (6:53 pm)
Barometer30.42 in30.51 in (11:53 pm)30.31 in (1:15 am)
Wind Speed3.8 mph9.2 mph (11:53 am)
Weather ElementAverage
Visibility9.7 mi
Wind DirectionSE (136.1 °)

Weather ElementTotal
Precipitation0.05 in
Heating Degree Days20.2 (Base 65)
Averaged from 38 records on February 13, 2013
WEATHER CONDITIONS BREAKOUT
WIND DIRECTION BREAKOUT
WEATHER BY HOUR - FEBRUARY 13, 2013
[ °C ]   °F
Local TimeTemperatureDewpointHumidityBarometerVisibilityWind DirectionWind SpeedGust SpeedPrecipitationEventsConditions
12:53 AM46.9 °F42.1 °F83 %30.32 in10.0 miWSW (240°)5.8 mphOvercast
1:15 AM44.6 °F42.8 °F93 %30.31 in10.0 miWest (260°)6.9 mphOvercast
1:25 AM44.6 °F42.8 °F93 %30.31 in10.0 miWest (280°)6.9 mphOvercast
1:33 AM44.6 °F42.8 °F93 %30.32 in10.0 miNNW (340°)6.9 mphOvercast
1:53 AM44.1 °F42.1 °F93 %30.35 in3.0 miNW (320°)4.6 mph0.01 inRainLight Rain
2:21 AM44.6 °F42.8 °F93 %30.33 in5.0 miNorth (350°)4.6 mph0.01 inOvercast
2:35 AM44.6 °F41.0 °F87 %30.33 in10.0 miNorth (360°)5.8 mph0.01 inOvercast
2:53 AM44.1 °F39.9 °F85 %30.34 in10.0 miNorth (360°)4.6 mph0.01 inOvercast
3:53 AM44.1 °F39.0 °F82 %30.36 in10.0 miEast (80°)4.6 mphOvercast
4:53 AM43.0 °F39.9 °F89 %30.37 in10.0 miESE (110°)4.6 mphOvercast
5:53 AM43.0 °F41.0 °F93 %30.38 in10.0 miEast (100°)5.8 mph0.00 inOvercast
6:53 AM43.0 °F39.9 °F89 %30.39 in10.0 miEast (100°)6.9 mphOvercast
7:53 AM43.0 °F39.9 °F89 %30.40 in10.0 miESE (110°)4.6 mphOvercast
8:53 AM43.0 °F39.9 °F89 %30.43 in10.0 miVariable3.5 mph0.01 inOvercast
9:53 AM43.0 °F39.0 °F86 %30.44 in10.0 miSE (140°)4.6 mph0.00 inMostly Cloudy
10:53 AM44.1 °F39.0 °F82 %30.44 in10.0 miSSE (150°)6.9 mphScattered Clouds
11:53 AM45.0 °F39.9 °F82 %30.44 in10.0 miSouth (170°)9.2 mphOvercast
12:29 PM44.6 °F39.2 °F81 %30.43 in10.0 miSouth (170°)8.1 mphOvercast
12:53 PM45.0 °F39.0 °F80 %30.44 in10.0 miSSE (150°)5.8 mphOvercast
1:36 PM46.4 °F39.2 °F76 %30.43 in10.0 miSSE (160°)4.6 mphOvercast
1:53 PM46.0 °F39.9 °F79 %30.44 in10.0 miWNW (290°)3.5 mphOvercast
2:48 PM44.6 °F39.2 °F81 %30.43 in10.0 miCalmOvercast
2:53 PM45.0 °F39.9 °F82 %30.44 in10.0 miCalmOvercast
3:27 PM44.6 °F39.2 °F81 %30.43 in10.0 miCalmOvercast
3:53 PM45.0 °F39.9 °F82 %30.45 in10.0 miWNW (290°)3.5 mphOvercast
4:53 PM44.1 °F39.9 °F85 %30.45 in10.0 miCalmOvercast
5:00 PM44.6 °F39.2 °F81 %30.44 in10.0 miNorth (360°)3.5 mphOvercast
5:53 PM45.0 °F39.0 °F80 %30.46 in10.0 miNNE (20°)3.5 mphOvercast
6:53 PM45.0 °F37.0 °F74 %30.46 in10.0 miENE (60°)4.6 mphOvercast
7:12 PM44.6 °F37.4 °F76 %30.46 in10.0 miENE (60°)3.5 mphOvercast
7:53 PM44.1 °F37.0 °F76 %30.48 in10.0 miCalmOvercast
8:13 PM44.6 °F37.4 °F76 %30.46 in10.0 miCalmOvercast
8:21 PM42.8 °F37.4 °F81 %30.46 in10.0 miCalmOvercast
8:53 PM44.1 °F37.0 °F76 %30.48 in10.0 miENE (70°)3.5 mphOvercast
9:53 PM44.1 °F37.0 °F76 %30.48 in10.0 miCalmMostly Cloudy
10:53 PM44.1 °F37.9 °F79 %30.49 in10.0 miENE (70°)4.6 mphOvercast
11:43 PM44.6 °F37.4 °F76 %30.49 in10.0 miCalmOvercast
11:53 PM44.1 °F37.9 °F79 %30.51 in10.0 miCalmOvercast
Hourly data recorded from KPAE, located miles away from Mukilteo, Washington







STORIES FROM OUR PARTNERS